Location: Kailua
(21.4020°N, 157.7390°W)
Time: 23:36:09
(UTC-10:00)

Cosmos 2221 Rocket - Visible Passes

Search period start: 28 May 2016 00:00
Search period end: 07 June 2016 00:00
Orbit: 620 x 649 km, 82.5° (Epoch: 28 May)

Date Brightness Start Highest point End Pass type
(mag) Time Alt. Az. Time Alt. Az. Time Alt. Az.
28 May 4.5 03:23:43 10° N 03:26:55 45° NNE 03:26:55 45° NNE visible
29 May 5.0 03:46:08 10° NNW 03:48:27 27° NW 03:48:27 27° NW visible
30 May 6.3 02:31:02 10° NNE 02:32:36 17° NE 02:32:36 17° NE visible
30 May 5.9 04:09:28 10° NW 04:10:02 12° NW 04:10:02 12° NW visible
31 May 5.8 02:52:28 10° N 02:54:15 23° NNE 02:54:15 23° NNE visible
01 Jun 5.8 03:14:42 10° NNW 03:15:56 18° NNW 03:15:56 18° NNW visible
02 Jun 6.8 02:00:11 10° NE 02:00:13 10° NE 02:00:13 10° NE visible
03 Jun 6.5 02:21:18 10° NNE 02:21:59 14° NNE 02:21:59 14° NNE visible
04 Jun 6.4 02:43:20 10° N 02:43:47 13° N 02:43:47 13° N visible
